Вернуться в каталог

COSMOS 375 DEB

АктивенLEO
NORAD 4712·DEBRIS·🇷🇺 Russia

Запущен Oct 30, 1970 с Baikonur Cosmodrome

Loading…

Ближайшие Пролёты (ближайшие 24 часа)

TLE

СвежийSource: Space-Track

Эпоха: Sep 14, 2026, 10:09 UTC

1 04712U 70091T   26257.42341485  .00003118  00000-0  56701-3 0  9999
2 04712  62.7617 142.6119 0464712 164.7888 196.7707 14.16069571756628

Отслеживайте COSMOS 375 DEB в реальном времени с AllMySat

Download on the App Store